Flag for Canada Weather past 2 weeks in Niagara Falls, Ontario, Canada

Now
30 °F

Broken clouds.


Feels Like: 30 °F
Forecast: 23 / 31 °F
Wind: No wind

Location: Niagara Falls International Airport

Current Time: Dec 20, 2014 at 1:58:19 PM

Latest Report: Dec 20, 2014 at 12:53 PM


Visibility: 10 mi

Pressure: 30.30 "Hg

Humidity: 69%

Dew point: 21 °F

Location of Niagara FallsLocation

Historic Weather in Niagara Falls — Graph

°F

Niagara Falls temperature yesterday

Maximum temperature yesterday: 29 °F (at 1:53 PM)
Minimum temperature yesterday: 25 °F (at 3:53 AM)
Average temperature yesterday: 27 °F

Past Weeks' High & Low Weather Summary

 TemperatureHumidityPressure
High44 °F (Dec 16, 5:53 PM)100% (Dec 15, 11:53 PM)30.79 "Hg (Dec 15, 11:53 PM)
Low22 °F (Dec 8, 4:53 AM)28% (Dec 8, 2:53 PM)29.69 "Hg (Dec 16, 2:04 PM)
Average32 °F82%30.13 "Hg
* Reported Dec 5 11:53 AM — Dec 20 11:53 AM, Niagara Falls, Weather by CustomWeather, © 2014

Note: Actual official high and low records may vary slightly from our data, if they occured in-between our weather recording intervals... More about our weather records

Advertising

Niagara Falls weather history for previous 24 hours

 ConditionsComfort  
Time TempWeatherWind HumidityBarometerVisibility
11:53 AM
Dec 20
29 °FPartly sunny.3 mph72%30.32 "Hg10 mi
10:53 AM28 °FPartly sunny.5 mph78%30.34 "Hg10 mi
9:53 AM28 °FPartly sunny.6 mph81%30.35 "Hg10 mi
8:53 AM26 °FPartly sunny.5 mph84%30.34 "Hg9 mi
7:53 AM25 °FPartly sunny.3 mph85%30.33 "Hg10 mi
6:59 AM26 °FOvercast.3 mph88%30.29 "Hg8 mi
6:02 AM25 °FPassing clouds.3 mph88%30.28 "Hg8 mi
5:49 AM23 °FPassing clouds.6 mph86%30.27 "Hg8 mi
4:53 AM26 °FPassing clouds.5 mph81%30.30 "Hg10 mi
2:53 AM25 °FOvercast.No wind88%30.27 "Hg8 mi
2:03 AM24 °FPassing clouds.No wind88%30.22 "Hg9 mi
1:53 AM24 °FPassing clouds.No wind84%30.27 "Hg9 mi
12:53 AM26 °FPassing clouds.5 mph81%30.29 "Hg10 mi
11:53 PM
Dec 19
28 °FOvercast.6 mph78%30.31 "Hg10 mi
10:53 PM28 °FOvercast.8 mph78%30.31 "Hg10 mi
9:53 PM28 °FOvercast.8 mph78%30.31 "Hg10 mi
8:53 PM28 °FOvercast.8 mph78%30.30 "Hg10 mi
7:53 PM29 °FMostly cloudy.9 mph75%30.29 "Hg10 mi
6:53 PM29 °FOvercast.9 mph75%30.29 "Hg10 mi
5:53 PM28 °FMostly cloudy.9 mph75%30.27 "Hg10 mi
4:53 PM29 °FPartly cloudy.8 mph72%30.25 "Hg10 mi
3:53 PM29 °FPartly sunny.9 mph72%30.23 "Hg10 mi
2:53 PM28 °FPartly sunny.10 mph72%30.23 "Hg10 mi
1:53 PM29 °FPartly sunny.13 mph72%30.22 "Hg10 mi
Weather by CustomWeather, © 2014

See weather overviewHow to use our weather pages